Weather History for Milford, UT

Change the Weather History Date:

Tuesday, October 23, 2012

  Actual Average Record
Temperature  
Mean Temperature 54 °F -  
Max Temperature 64 °F 60 °F 82 °F (2003)
Min Temperature 44 °F 29 °F 18 °F (1996)
Degree Days  
Heating Degree Days 11    
Growing Degree Days 4 (Base 50)    
Moisture  
Dew Point 31 °F    
Average Humidity 42    
Maximum Humidity 66    
Minimum Humidity 13    
Precipitation  
Precipitation 0.00 in - - ()
Sea Level Pressure  
Sea Level Pressure 29.72 in    
Wind  
Wind Speed 18 mph (SSW)    
Max Wind Speed 26 mph    
Max Gust Speed 36 mph    
Visibility 10 miles    
Events      
Averages and records for this station are not official NWS values.
T = Trace of Precipitation, MM = Missing Value Source: NWS Daily Summary

Daily Weather History Graph

Daily Weather History Graph

Search for Another Location

Airport:

Trip Planner

Search our weather history database for the weather conditions in past years. The results will help you decide how hot, cold, wet, or windy it might be!

Date:

Astronomy

Oct. 23, 2012 Rise Set
Actual Time 7:49 AM MDT 6:42 PM MDT
Civil Twilight 7:22 AM MDT 7:09 PM MDT
Nautical Twilight 6:51 AM MDT 7:40 PM MDT
Astronomical Twilight 6:20 AM MDT 8:10 PM MDT
Moon 3:24 PM MDT (10/23) 1:50 AM MDT (10/23)
Length of Visible Light 11h 46m
Length of Day
10h 52m
Waxing Gibbous, 67% of the Moon is Illuminated
Oct 23
Waxing Gibbous
Oct 29
Full
Nov 6
Last Quarter
Nov 13
New
Nov 20
First Quarter

Hourly Weather History & Observations

Time (MDT) Temp. Windchill Dew Point Humidity Pressure Visibility Wind Dir Wind Speed Gust Speed Precip Events Conditions
12:52 AM 53.1 °F - 36.0 °F 52% 29.65 in 10.0 mi South 15.0 mph - N/A   Partly Cloudy
1:52 AM 53.1 °F - 36.0 °F 52% 29.63 in 10.0 mi South 21.9 mph 31.1 mph N/A   Clear
2:52 AM 52.0 °F - 35.1 °F 53% 29.66 in 10.0 mi SSW 18.4 mph - N/A   Clear
3:52 AM 52.0 °F - 36.0 °F 54% 29.66 in 10.0 mi South 24.2 mph 32.2 mph N/A   Clear
4:52 AM 50.0 °F - 36.0 °F 59% 29.66 in 10.0 mi South 18.4 mph - N/A   Clear
5:52 AM 46.9 °F - 35.1 °F 63% 29.68 in 10.0 mi South 19.6 mph - N/A   Clear
6:52 AM 48.9 °F - 35.1 °F 59% 29.68 in 10.0 mi SSW 25.3 mph 32.2 mph N/A   Clear
7:52 AM 46.0 °F 39.6 °F 35.1 °F 66% 29.73 in 10.0 mi South 15.0 mph - N/A   Clear
8:52 AM 46.9 °F - 35.1 °F 63% 29.76 in 10.0 mi SE 9.2 mph - N/A   Clear
9:52 AM 51.1 °F - 36.0 °F 56% 29.77 in 10.0 mi SSE 12.7 mph 19.6 mph N/A   Clear
10:52 AM 55.9 °F - 37.0 °F 49% 29.76 in 10.0 mi SSW 12.7 mph 20.7 mph N/A   Clear
11:52 AM 57.0 °F - 33.1 °F 40% 29.77 in 10.0 mi SSW 20.7 mph 28.8 mph N/A   Clear
12:52 PM 62.1 °F - 28.0 °F 28% 29.72 in 10.0 mi SSW 21.9 mph 32.2 mph N/A   Clear
1:52 PM 61.0 °F - 27.0 °F 27% 29.69 in 10.0 mi SW 19.6 mph 29.9 mph N/A   Clear
2:52 PM 63.0 °F - 25.0 °F 24% 29.68 in 10.0 mi SW 21.9 mph 29.9 mph N/A   Clear
3:52 PM 62.1 °F - 24.1 °F 23% 29.67 in 10.0 mi SW 26.5 mph 35.7 mph N/A   Clear
4:52 PM 60.1 °F - 27.0 °F 28% 29.69 in 10.0 mi SW 19.6 mph 28.8 mph N/A   Clear
5:52 PM 59.0 °F - 25.0 °F 27% 29.71 in 10.0 mi SW 20.7 mph 29.9 mph N/A   Clear
6:52 PM 57.9 °F - 23.0 °F 26% 29.72 in 10.0 mi WSW 15.0 mph 23.0 mph N/A   Clear
7:52 PM 55.9 °F - 19.9 °F 25% 29.76 in 10.0 mi SW 10.4 mph - N/A   Clear
8:52 PM 54.0 °F - 21.9 °F 29% 29.77 in 10.0 mi SW 4.6 mph - N/A   Clear
9:52 PM 48.9 °F - 33.1 °F 54% 29.78 in 10.0 mi NNE 10.4 mph - N/A   Clear
10:52 PM 46.9 °F - 33.1 °F 59% 29.78 in 10.0 mi NNW 13.8 mph - N/A   Clear
11:52 PM 44.1 °F 35.7 °F 33.1 °F 65% 29.80 in 10.0 mi North 20.7 mph 25.3 mph N/A   Clear